When you browse on this site, cookies collect data to enhance your experience and personalize the content and advertising you see.
Visit our Privacy Policy to learn more. By continuing to use the site, you agree to this use of cookies and data.
  • In Germany
  • List of Countries
  • For 7 days
  • Water Temperature
  • Satellite Maps
  • Weather Map
  • Weather Widgets
  • user-avatar
    Login

    Hourly Weather Vitebsk

    Today, 23 January, Wednesday

    Time Temperature Precipitation Wind Pressure Humidity
    00:00 -15°C° 0 mm 2 mps 748 mmHg 97%
    01:00 -14°C° 0 mm 2 mps 748 mmHg 97%
    02:00 -14°C° 0 mm 2 mps 748 mmHg 96%
    03:00 -13°C° 0 mm 2 mps 748 mmHg 96%
    04:00 -13°C° 0 mm 2 mps 747 mmHg 96%
    05:00 -13°C° 0 mm 2 mps 747 mmHg 96%
    06:00 -12°C° 0 mm 2 mps 747 mmHg 96%
    07:00 -12°C° 0 mm 2 mps 747 mmHg 96%
    08:00 -10°C° 0 mm 2 mps 747 mmHg 96%
    09:00 -9°C° 0 mm 2 mps 747 mmHg 95%
    10:00 -10°C° 0 mm 3 mps 747 mmHg 94%
    11:00 -9°C° 0 mm 3 mps 747 mmHg 93%
    12:00 -10°C° 0 mm 3 mps 747 mmHg 92%
    13:00 -10°C° 0 mm 3 mps 747 mmHg 92%
    14:00 -9°C° 0 mm 2 mps 747 mmHg 91%
    15:00 -10°C° 0 mm 2 mps 746 mmHg 92%
    16:00 -13°C° 0 mm 2 mps 746 mmHg 94%
    17:00 -14°C° 0 mm 2 mps 746 mmHg 96%
    18:00 -14°C° 0 mm 2 mps 746 mmHg 96%
    19:00 -14°C° 0 mm 2 mps 746 mmHg 96%
    20:00 -14°C° 0 mm 2 mps 746 mmHg 96%
    21:00 -14°C° 0 mm 2 mps 746 mmHg 96%
    22:00 -15°C° 0 mm 2 mps 746 mmHg 96%
    23:00 -15°C° 0 mm 2 mps 746 mmHg 95%

    Tomorrow, 24 January, Thursday

    Time Temperature Precipitation Wind Pressure Humidity
    00:00 -16°C° 0 mm 2 mps 746 mmHg 96%
    01:00 -16°C° 0 mm 2 mps 746 mmHg 96%
    02:00 -15°C° 0 mm 1 mps 746 mmHg 97%
    03:00 -15°C° 0 mm 1 mps 746 mmHg 97%
    04:00 -14°C° 0 mm 1 mps 746 mmHg 97%
    05:00 -16°C° 0 mm 2 mps 746 mmHg 97%
    06:00 -16°C° 0 mm 2 mps 746 mmHg 97%
    07:00 -16°C° 0 mm 2 mps 746 mmHg 97%
    08:00 -16°C° 0 mm 2 mps 746 mmHg 97%
    09:00 -14°C° 0 mm 1 mps 747 mmHg 96%
    10:00 -13°C° 0 mm 1 mps 747 mmHg 95%
    11:00 -12°C° 0 mm 1 mps 747 mmHg 94%
    12:00 -12°C° 0 mm 1 mps 747 mmHg 94%
    13:00 -11°C° 0 mm 1 mps 747 mmHg 93%
    14:00 -11°C° 0 mm 1 mps 747 mmHg 93%
    15:00 -12°C° 0 mm 1 mps 747 mmHg 94%
    16:00 -13°C° 0 mm 1 mps 747 mmHg 95%
    17:00 -15°C° 0 mm 1 mps 748 mmHg 95%
    18:00 -17°C° 0 mm 2 mps 748 mmHg 95%
    19:00 -17°C° 0 mm 2 mps 748 mmHg 94%
    20:00 -17°C° 0 mm 2 mps 749 mmHg 94%
    21:00 -17°C° 0 mm 2 mps 749 mmHg 94%
    22:00 -17°C° 0 mm 2 mps 749 mmHg 94%
    23:00 -18°C° 0 mm 2 mps 749 mmHg 94%

    Day after tomorrow, 25 January, Friday

    Time Temperature Precipitation Wind Pressure Humidity
    00:00 -18°C° 0 mm 2 mps 749 mmHg 94%
    01:00 -18°C° 0 mm 2 mps 749 mmHg 95%
    02:00 -18°C° 0 mm 2 mps 750 mmHg 96%
    03:00 -17°C° 0 mm 2 mps 750 mmHg 96%
    04:00 -17°C° 0 mm 3 mps 750 mmHg 96%
    05:00 -16°C° 0 mm 3 mps 750 mmHg 96%
    06:00 -15°C° 0 mm 3 mps 750 mmHg 95%
    07:00 -15°C° 0 mm 3 mps 750 mmHg 95%
    08:00 -15°C° 0 mm 3 mps 751 mmHg 94%
    09:00 -14°C° 0 mm 3 mps 751 mmHg 94%
    10:00 -15°C° 0 mm 4 mps 751 mmHg 94%
    11:00 -15°C° 0 mm 4 mps 751 mmHg 94%
    12:00 -15°C° 0 mm 4 mps 751 mmHg 93%
    13:00 -14°C° 0 mm 4 mps 751 mmHg 92%
    14:00 -14°C° 0 mm 4 mps 751 mmHg 91%
    15:00 -15°C° 0 mm 4 mps 751 mmHg 92%
    16:00 -15°C° 0 mm 4 mps 751 mmHg 92%
    17:00 -16°C° 0 mm 4 mps 751 mmHg 92%
    18:00 -16°C° 0 mm 4 mps 751 mmHg 89%
    19:00 -17°C° 0 mm 4 mps 751 mmHg 87%
    20:00 -18°C° 0 mm 5 mps 751 mmHg 85%
    21:00 -18°C° 0 mm 5 mps 750 mmHg 84%
    22:00 -18°C° 0 mm 5 mps 750 mmHg 83%
    23:00 -18°C° 0 mm 5 mps 750 mmHg 83%

    26 January, Saturday

    Time Temperature Precipitation Wind Pressure Humidity
    00:00 -18°C° 0 mm 5 mps 750 mmHg 83%
    01:00 -18°C° 0 mm 5 mps 749 mmHg 83%
    02:00 -18°C° 0 mm 5 mps 749 mmHg 83%
    03:00 -18°C° 0.1 mm 5 mps 749 mmHg 85%
    04:00 -18°C° 0.1 mm 5 mps 748 mmHg 87%
    05:00 -18°C° 0.1 mm 5 mps 748 mmHg 89%
    06:00 -18°C° 0.5 mm 5 mps 747 mmHg 90%
    07:00 -18°C° 0.5 mm 5 mps 747 mmHg 92%
    08:00 -18°C° 0.5 mm 6 mps 747 mmHg 93%
    09:00 -18°C° 0.6 mm 5 mps 746 mmHg 93%
    10:00 -17°C° 0.6 mm 5 mps 746 mmHg 93%
    11:00 -17°C° 0.6 mm 5 mps 746 mmHg 93%
    12:00 -17°C° 0.5 mm 5 mps 745 mmHg 93%
    13:00 -15°C° 0.5 mm 5 mps 745 mmHg 93%
    14:00 -15°C° 0.5 mm 4 mps 745 mmHg 93%
    15:00 -15°C° 0.4 mm 4 mps 744 mmHg 93%
    16:00 -15°C° 0.4 mm 4 mps 744 mmHg 93%
    17:00 -15°C° 0.4 mm 4 mps 744 mmHg 94%
    18:00 -14°C° 0.2 mm 3 mps 744 mmHg 93%
    19:00 -14°C° 0.2 mm 3 mps 744 mmHg 93%
    20:00 -14°C° 0.2 mm 3 mps 743 mmHg 93%
    21:00 -15°C° 0.1 mm 3 mps 743 mmHg 93%
    22:00 -15°C° 0.1 mm 3 mps 743 mmHg 93%
    23:00 -16°C° 0.1 mm 3 mps 743 mmHg 94%

    27 January, Sunday

    Time Temperature Precipitation Wind Pressure Humidity
    00:00 -15°C° 0 mm 3 mps 743 mmHg 93%
    01:00 -15°C° 0 mm 3 mps 743 mmHg 93%
    02:00 -15°C° 0 mm 3 mps 743 mmHg 93%
    03:00 -15°C° 0 mm 3 mps 743 mmHg 93%
    04:00 -15°C° 0 mm 3 mps 743 mmHg 93%
    05:00 -14°C° 0 mm 2 mps 743 mmHg 94%
    06:00 -14°C° 0 mm 2 mps 743 mmHg 94%
    07:00 -15°C° 0 mm 2 mps 743 mmHg 94%
    08:00 -15°C° 0 mm 2 mps 743 mmHg 95%
    09:00 -16°C° 0 mm 3 mps 743 mmHg 94%
    10:00 -15°C° 0 mm 3 mps 743 mmHg 93%
    11:00 -15°C° 0 mm 3 mps 743 mmHg 92%
    12:00 -15°C° 0 mm 3 mps 743 mmHg 91%
    13:00 -14°C° 0 mm 3 mps 744 mmHg 91%
    14:00 -14°C° 0 mm 3 mps 744 mmHg 90%
    15:00 -15°C° 0 mm 3 mps 744 mmHg 92%
    16:00 -15°C° 0 mm 2 mps 744 mmHg 93%
    17:00 -16°C° 0 mm 2 mps 744 mmHg 94%
    18:00 -16°C° 0 mm 2 mps 744 mmHg 95%
    19:00 -17°C° 0 mm 2 mps 745 mmHg 95%
    20:00 -17°C° 0 mm 2 mps 745 mmHg 96%
    21:00 -18°C° 0 mm 2 mps 745 mmHg 96%
    22:00 -18°C° 0 mm 2 mps 745 mmHg 96%
    23:00 -18°C° 0 mm 2 mps 745 mmHg 96%

    28 January, Monday

    Time Temperature Precipitation Wind Pressure Humidity
    00:00 -19°C° 0 mm 2 mps 746 mmHg 96%
    01:00 -19°C° 0 mm 2 mps 746 mmHg 96%
    02:00 -22°C° 0 mm 3 mps 746 mmHg 96%
    03:00 -22°C° 0 mm 3 mps 746 mmHg 96%
    04:00 -22°C° 0 mm 3 mps 746 mmHg 96%
    05:00 -23°C° 0 mm 3 mps 747 mmHg 96%
    06:00 -23°C° 0 mm 3 mps 747 mmHg 97%
    07:00 -24°C° 0 mm 3 mps 747 mmHg 97%
    08:00 -24°C° 0 mm 3 mps 748 mmHg 97%
    09:00 -23°C° 0 mm 3 mps 748 mmHg 95%
    10:00 -23°C° 0 mm 3 mps 748 mmHg 94%
    11:00 -22°C° 0 mm 3 mps 749 mmHg 93%
    12:00 -21°C° 0 mm 3 mps 749 mmHg 93%
    13:00 -19°C° 0 mm 3 mps 749 mmHg 92%
    14:00 -19°C° 0 mm 3 mps 750 mmHg 92%
    15:00 -21°C° 0 mm 3 mps 750 mmHg 93%
    16:00 -22°C° 0 mm 3 mps 750 mmHg 94%
    17:00 -23°C° 0 mm 3 mps 751 mmHg 96%
    18:00 -23°C° 0 mm 3 mps 751 mmHg 96%
    19:00 -24°C° 0 mm 3 mps 752 mmHg 96%
    20:00 -24°C° 0 mm 3 mps 752 mmHg 96%
    21:00 -24°C° 0 mm 2 mps 753 mmHg 96%
    22:00 -25°C° 0 mm 2 mps 753 mmHg 96%
    23:00 -25°C° 0 mm 2 mps 753 mmHg 95%
    Show more